シュヴァスマン-ヴァハマン第3彗星

73P/Schwassmann-Wachmann 3 (2001)

English version
Home page
Updated on July 31, 2010

---------------------------------------------------------------------

・ プロフィール

・ 軌道要素

Component C

Epoch 2001 Jan. 11.0 TT = JDT 2451920.5  
T 2001 Jan. 27.71491 TT                                 Muraoka 
q   0.9373554            (2000.0)            P               Q
n   0.18400239     Peri.  198.77573     -0.02869243     +0.98217944
a   3.0614023      Node    69.92228     -0.88992362     +0.05952112
e   0.6938150      Incl.   11.40605     -0.45520621     -0.17827165
P   5.36
From 226 observations 1994 Dec. 28-2000 Dec. 1, mean residual 0".83.
 Nongravitational parameters A1 = +0.65 +/- 0.08, A2 = -0.0681 +/- 0.0295.

Component B

Perturbed ephemeris below is based on elements from NK 934. 

Epoch (TT/JD) T (TT/JD)         Peri.     Node      Incl.   
2451920.50000 2451937.4861394 198.77742  69.91831  11.40594 

    e             q             a      Epoch (TT)
0.6938423     0.9374028      3.06183  2001/01/11.00

Component E

Perturbed ephemeris below is based on elements from NK 934. 

Epoch (TT/JD) T (TT/JD)         Peri.     Node      Incl.   
2451920.50000 2451937.9538056 198.77119  69.91932  11.40649 

    e             q             a      Epoch (TT)
0.6938782     0.9374405      3.06231  2001/01/11.00

・ 星図

・ 光度変化

	C核:
        m1 = 7.5 + 5 logΔ + 18.0 log r

	B核:
        m1 = 12.5 + 5 logΔ + 18.0 log r

	E核:
        m1 = 17 + 5 logΔ + 190 log r(t + 60)

---------------------------------------------------------------------

C核の軌道要素は村岡健治氏の計算によるものです。
B核とE核の軌道要素はMinor Planet & Comet Ephemeris Serviceで計算したものです。
星図は StellaNavigator Ver.2.0 for Windows (アストロアーツ 編著 / アスキー出版局刊) で作成したものです。
光度グラフはComet for Windowsで作成したものです。

---------------------------------------------------------------------

Copyright(C) Seiichi Yoshida (comet@aerith.net). All rights reserved.